Wind_Speed
10 10 9 9 8 8 9 9 8 8 8 8 8 8 7 8 8 9 9 9 10 10 10 10 11 11 11 11 11 11 11 12 12 12 12 12 12 12 12 12 12 13 13
10 10 10 10 9 10 10 10 9 9 9 9 9 9 9 9 9 9 9 10 10 11 11 11 12 12 12 13 13 13 13 13 12 12 12 13 13 13 13 13 13 14 14
11 12 11 11 10 10 11 11 10 10 10 10 9 9 9 10 10 10 11 11 12 12 13 13 13 13 13 14 14 14 14 14 13 13 13 14 14 14 14 14 14 14 14
12 13 12 12 11 11 11 11 11 11 11 11 10 10 10 10 11 11 12 13 13 14 14 14 14 14 14 14 14 14 14 14 14 14 15 14 14 14 15 15 15 14 14
14 13 14 13 13 12 12 12 12 12 12 11 11 11 11 12 12 13 13 14 14 15 15 15 15 15 15 15 15 14 14 14 15 15 15 15 15 15 15 15 15 15 15
14 14 14 14 14 13 13 13 13 13 13 13 13 13 13 14 14 14 14 15 15 16 16 15 16 16 16 16 15 16 15 15 16 16 16 16 16 16 16 16 15 15 15
14 14 14 14 14 14 15 14 14 14 14 14 15 15 15 15 16 16 16 16 17 17 17 17 18 18 17 17 17 17 17 17 17 17 17 17 17 17 17 16 16 15 15
14 15 15 14 15 15 15 16 16 16 16 16 16 16 17 17 17 18 18 18 18 19 19 19 19 19 19 19 19 19 19 19 18 18 18 18 18 18 18 17 17 16 16
15 15 15 15 16 16 17 17 17 17 17 18 18 18 18 19 19 19 19 20 20 20 21 21 21 21 21 21 21 21 21 21 20 20 20 19 19 18 18 18 18 17 17
17 18 17 18 18 18 18 18 18 18 18 19 19 20 20 20 20 20 21 21 22 22 23 23 23 23 23 23 23 23 23 23 22 22 21 20 20 19 20 20 19 19 19
19 20 20 20 20 19 19 19 20 20 20 21 21 21 21 21 21 21 22 23 24 24 25 25 25 26 25 26 26 25 25 25 24 23 22 22 22 21 21 21 21 20 20
21 21 22 22 22 21 21 21 22 22 22 23 23 23 23 23 23 23 23 24 25 26 26 27 28 28 28 28 28 27 27 26 26 25 25 24 24 23 23 23 23 22 21
22 23 23 24 24 23 23 23 24 24 24 25 24 24 25 25 25 25 26 26 27 27 28 28 29 29 29 30 29 29 28 28 28 27 27 27 26 25 25 24 24 24 23
24 24 25 25 25 25 25 25 25 26 26 26 27 27 27 28 28 28 28 29 29 29 29 29 29 30 31 31 30 30 29 29 29 28 29 28 27 27 27 26 25 25 24
25 26 26 27 27 27 26 27 27 28 28 28 29 29 30 30 30 31 31 31 31 30 30 30 30 30 30 30 30 30 30 29 29 29 29 28 28 27 27 27 27 26 26
26 27 27 26 27 27 28 29 29 29 30 30 31 31 32 32 32 33 33 33 33 32 32 31 31 31 31 31 31 31 31 30 30 30 29 29 28 28 28 28 28 28 27
27 28 27 27 27 28 29 29 29 30 31 32 32 33 33 33 33 34 34 34 34 33 33 32 32 32 32 32 32 31 31 31 30 30 29 29 28 29 29 29 29 29 28
29 28 28 28 29 29 29 29 30 31 31 32 33 34 34 33 34 34 34 33 33 34 34 34 34 34 33 33 32 31 31 30 30 30 29 29 30 30 29 29 29 29 29
29 29 30 30 30 30 30 31 31 32 32 33 33 34 34 34 34 35 35 34 34 34 34 34 34 34 34 33 32 31 31 30 30 30 30 31 30 30 30 29 29 29 29
31 31 31 31 30 30 31 31 32 32 33 34 34 34 35 35 35 35 35 35 35 34 34 34 34 34 33 33 33 33 32 31 31 31 31 31 31 30 30 30 30 30 29
31 31 32 32 31 31 31 31 32 33 34 34 34 35 35 35 35 35 35 34 34 35 35 34 34 34 33 33 33 33 33 33 33 32 32 32 32 31 30 31 31 30 30
32 33 33 33 33 33 32 32 32 33 34 34 35 35 35 35 34 34 34 34 34 34 33 32 32 33 33 33 33 33 33 33 33 33 33 33 33 32 31 31 31 31 31
33 34 34 34 34 34 33 33 33 33 34 34 34 34 34 35 34 35 35 34 34 34 33 33 33 32 33 34 34 34 34 33 34 34 33 33 33 33 32 31 31 32 32
34 35 35 34 34 34 34 34 34 34 35 34 34 33 34 35 35 36 36 35 34 33 33 33 34 33 33 34 34 34 34 33 33 32 33 33 32 32 32 32 32 32 31
34 35 35 34 34 34 34 34 34 34 33 33 33 34 35 35 36 36 36 35 34 34 34 34 34 35 34 34 34 34 34 33 32 32 32 32 31 31 31 32 31 31 30
34 35 34 34 34 34 34 34 34 34 33 33 33 34 34 35 35 35 35 35 34 34 34 35 35 34 34 34 34 34 33 33 32 32 32 32 31 31 31 32 31 31 31
Wind_Direction
266 266 267 270 272 271 272 275 278 281 286 290 293 291 287 286 282 279 280 282 280 280 284 288 291 292 290 287 287 287 285 284 284 285 286 288 290 289 287 286 286 283 281
263 264 263 267 269 269 269 270 272 274 278 283 286 287 286 284 282 280 280 278 278 280 282 285 288 290 289 287 287 287 286 284 284 285 288 288 287 287 287 287 287 285 281
268 267 263 263 262 264 265 267 270 271 275 278 280 283 283 283 282 281 279 279 278 280 282 283 285 287 286 285 284 284 285 285 287 287 288 288 288 288 288 287 286 284 280
268 267 264 263 263 264 266 266 267 269 272 275 276 279 282 281 279 281 283 283 283 283 283 283 284 285 286 284 282 281 283 286 288 288 287 286 286 288 288 288 286 282 277
265 265 262 262 261 262 263 264 265 268 271 273 274 276 280 282 282 280 282 284 284 284 285 287 286 285 287 287 286 286 286 287 288 287 286 286 285 285 286 287 287 283 278
267 265 265 266 262 261 262 263 266 268 270 270 274 276 278 282 282 281 281 282 283 284 285 286 287 285 284 285 285 284 285 287 288 287 286 286 285 284 284 285 286 283 280
271 270 269 268 264 262 262 263 266 269 271 271 274 276 278 280 280 280 280 280 281 282 283 285 286 285 283 282 282 283 284 285 286 286 286 285 284 282 282 283 282 280 280
274 273 271 268 266 266 264 263 265 268 271 272 274 276 278 280 281 281 281 281 281 281 281 283 284 284 283 281 280 281 282 282 284 284 285 285 283 281 280 280 279 278 278
277 278 276 274 270 269 268 265 265 267 269 271 273 275 277 278 279 281 282 282 282 282 282 282 282 282 282 281 281 281 281 280 281 281 281 282 281 279 278 278 278 277 277
275 277 277 275 273 272 270 266 265 266 268 271 273 275 276 278 279 280 280 282 282 282 282 281 280 281 281 281 281 281 280 280 280 279 279 279 279 278 278 277 276 276 276
276 277 277 275 273 274 273 270 267 267 269 271 273 275 276 277 279 281 282 283 284 283 283 281 280 279 279 279 279 279 278 277 277 277 277 278 278 276 276 276 276 275 274
278 277 276 277 275 274 274 272 271 270 270 271 272 274 276 277 278 280 281 282 284 284 283 281 280 279 278 278 277 277 277 276 275 275 275 275 276 275 274 274 274 273 272
280 279 278 278 277 276 274 274 273 273 272 272 272 275 277 278 278 279 281 282 283 284 283 282 281 279 278 277 277 276 277 276 275 274 273 273 273 274 273 272 271 270 270
280 279 279 277 277 276 275 275 274 273 273 272 274 275 277 278 278 279 280 282 282 283 284 284 282 281 279 278 277 277 277 275 274 274 272 272 272 272 271 269 268 269 269
282 282 281 278 276 275 275 274 273 273 273 273 274 276 278 278 279 280 281 281 282 282 283 284 284 282 281 279 278 276 275 275 274 273 272 271 271 269 268 268 267 267 267
282 282 282 281 278 276 275 275 273 274 275 275 275 276 278 279 280 281 282 282 282 282 282 282 282 282 281 280 278 276 274 273 273 272 270 271 271 268 266 265 266 266 266
282 283 284 284 282 278 277 276 275 276 276 277 276 277 277 279 281 281 283 282 282 281 281 281 281 280 280 279 278 275 274 273 273 271 269 269 269 268 266 265 265 265 266
282 283 284 285 284 281 279 278 277 277 277 277 278 278 277 279 281 281 283 282 282 281 281 280 279 279 278 277 276 276 275 274 273 271 270 269 267 267 266 265 264 265 266
283 283 283 283 283 282 281 280 279 278 279 279 279 279 278 279 280 281 283 282 281 282 281 280 279 278 277 275 274 273 274 273 272 271 270 269 267 267 266 264 265 266 267
282 282 282 282 282 282 283 283 281 279 280 280 281 280 279 279 280 281 281 281 281 282 281 279 279 279 276 274 273 272 273 272 272 271 270 269 268 267 266 265 265 266 266
283 281 283 282 282 283 282 282 281 280 280 280 281 281 282 280 281 281 281 281 281 281 281 279 278 277 276 274 272 271 272 272 271 270 269 268 267 267 266 266 266 266 265
285 284 284 283 284 284 283 282 282 282 281 282 281 281 281 281 279 280 280 280 281 281 281 279 278 278 276 274 273 272 273 272 269 269 268 268 267 267 266 266 266 265 265
287 287 287 285 285 285 284 284 285 284 283 282 281 281 280 280 279 279 278 279 279 280 278 278 277 277 276 275 273 273 273 272 269 267 267 267 266 265 266 265 264 264 264
286 286 287 287 285 285 283 284 284 283 283 282 282 281 281 280 279 279 278 278 277 277 277 278 279 278 277 275 273 274 273 271 268 266 265 264 263 263 264 264 265 264 264
287 287 287 287 286 285 284 284 285 285 283 283 282 281 281 280 279 277 277 278 277 276 276 276 277 278 276 275 275 274 270 269 267 265 263 262 262 263 263 263 265 264 263
288 288 288 287 286 285 284 285 286 285 284 283 282 282 282 280 279 278 278 278 276 276 275 275 277 277 275 274 274 272 271 268 265 264 264 263 264 264 265 265 265 265 264
Height
5844 5844 5843 5843 5843 5843 5843 5843 5843 5843 5843 5842 5842 5842 5841 5841 5841 5840 5840 5840 5840 5840 5839 5839 5838 5838 5837 5837 5836 5835 5835 5834 5834 5833 5832 5832 5831 5830 5829 5828 5828 5827 5827
5841 5841 5841 5841 5841 5841 5841 5841 5841 5841 5840 5840 5840 5840 5839 5839 5839 5838 5838 5838 5837 5837 5837 5836 5836 5835 5834 5834 5833 5832 5832 5831 5831 5830 5830 5829 5828 5827 5826 5825 5824 5823 5823
5838 5838 5838 5838 5838 5838 5838 5838 5838 5838 5838 5838 5838 5837 5837 5837 5836 5836 5835 5835 5835 5834 5834 5833 5833 5832 5831 5830 5830 5829 5828 5828 5827 5827 5826 5825 5824 5823 5823 5821 5820 5819 5819
5834 5834 5834 5835 5835 5835 5835 5835 5835 5835 5835 5835 5834 5834 5834 5834 5834 5833 5833 5832 5832 5831 5831 5830 5829 5829 5828 5827 5826 5826 5825 5824 5823 5823 5822 5822 5821 5820 5819 5818 5817 5816 5815
5830 5830 5830 5831 5831 5831 5831 5831 5832 5832 5832 5831 5831 5831 5831 5831 5831 5830 5829 5829 5828 5828 5827 5826 5826 5825 5824 5823 5823 5822 5821 5821 5820 5819 5818 5818 5817 5816 5815 5814 5813 5811 5810
5826 5826 5826 5827 5827 5827 5827 5828 5828 5828 5828 5828 5828 5828 5828 5827 5827 5826 5826 5825 5825 5824 5823 5823 5822 5821 5820 5820 5819 5818 5817 5817 5816 5815 5814 5813 5812 5811 5811 5809 5808 5807 5807
5822 5822 5822 5823 5823 5823 5823 5823 5824 5824 5824 5824 5824 5824 5823 5823 5823 5822 5822 5821 5821 5820 5819 5818 5818 5817 5816 5815 5814 5814 5813 5812 5811 5810 5809 5809 5808 5807 5806 5805 5804 5803 5803
5818 5818 5818 5818 5818 5818 5819 5819 5819 5819 5819 5819 5819 5819 5819 5819 5818 5818 5817 5816 5816 5815 5815 5814 5813 5812 5811 5810 5810 5809 5808 5807 5806 5805 5804 5804 5803 5802 5801 5800 5800 5799 5799
5815 5814 5814 5814 5814 5814 5814 5814 5814 5814 5814 5814 5814 5814 5814 5814 5813 5813 5812 5811 5811 5810 5809 5809 5808 5807 5806 5805 5804 5803 5802 5802 5801 5800 5799 5798 5797 5797 5796 5795 5795 5795 5794
5811 5810 5810 5809 5809 5809 5809 5809 5809 5809 5809 5809 5809 5809 5808 5808 5807 5807 5806 5806 5805 5804 5803 5802 5802 5801 5800 5799 5798 5797 5796 5796 5795 5794 5793 5793 5792 5791 5791 5790 5790 5790 5790
5806 5805 5805 5804 5804 5803 5803 5803 5803 5803 5803 5803 5803 5803 5802 5802 5802 5801 5800 5800 5799 5798 5797 5796 5795 5794 5793 5792 5791 5790 5789 5789 5788 5788 5787 5787 5786 5786 5785 5785 5784 5784 5784
5801 5800 5799 5799 5798 5798 5797 5797 5797 5797 5797 5797 5796 5796 5796 5795 5795 5795 5794 5793 5792 5791 5789 5788 5787 5786 5785 5784 5783 5782 5782 5781 5781 5780 5780 5780 5779 5779 5779 5779 5779 5779 5779
5795 5794 5793 5793 5792 5791 5791 5791 5790 5790 5790 5790 5790 5790 5789 5789 5788 5787 5786 5785 5784 5783 5782 5780 5779 5778 5777 5776 5775 5774 5773 5773 5772 5772 5771 5771 5771 5772 5772 5772 5772 5772 5772
5788 5787 5787 5786 5785 5785 5784 5784 5783 5783 5783 5782 5782 5782 5781 5781 5780 5779 5778 5777 5776 5774 5773 5771 5770 5769 5768 5767 5766 5765 5765 5764 5764 5763 5763 5763 5763 5763 5763 5764 5765 5765 5765
5781 5780 5779 5778 5778 5777 5776 5776 5776 5775 5775 5774 5774 5773 5773 5772 5772 5770 5769 5768 5767 5765 5764 5762 5761 5760 5759 5758 5757 5757 5756 5756 5755 5754 5754 5754 5754 5754 5755 5756 5756 5757 5757
5774 5773 5771 5770 5769 5769 5768 5768 5767 5766 5766 5765 5765 5764 5764 5763 5762 5761 5760 5758 5757 5755 5754 5752 5751 5750 5749 5748 5747 5747 5747 5746 5746 5746 5745 5745 5745 5746 5746 5747 5748 5749 5749
5766 5765 5764 5762 5761 5760 5759 5759 5758 5757 5757 5756 5755 5755 5754 5753 5752 5751 5750 5748 5747 5745 5744 5742 5741 5740 5739 5738 5737 5737 5736 5736 5736 5736 5736 5736 5736 5737 5737 5738 5739 5740 5740
5759 5757 5755 5754 5752 5751 5750 5750 5749 5748 5747 5746 5745 5744 5744 5743 5742 5740 5739 5738 5736 5735 5734 5733 5731 5730 5729 5728 5727 5727 5727 5727 5727 5727 5727 5727 5727 5728 5728 5729 5730 5731 5732
5750 5749 5747 5745 5744 5742 5741 5740 5739 5738 5737 5736 5736 5734 5733 5732 5731 5730 5729 5727 5726 5725 5723 5722 5721 5719 5718 5717 5717 5717 5717 5717 5717 5717 5718 5718 5718 5719 5719 5720 5721 5722 5723
5741 5740 5738 5737 5735 5733 5732 5730 5729 5728 5727 5726 5725 5724 5723 5722 5720 5719 5718 5717 5715 5714 5713 5712 5710 5709 5708 5708 5707 5707 5707 5708 5708 5708 5708 5708 5709 5709 5710 5711 5712 5713 5714
5732 5731 5729 5728 5726 5724 5722 5721 5719 5718 5717 5716 5714 5713 5712 5711 5709 5708 5707 5706 5705 5704 5702 5701 5700 5699 5698 5697 5697 5697 5696 5697 5697 5698 5698 5699 5699 5700 5700 5701 5702 5704 5704
5723 5721 5720 5719 5716 5714 5712 5711 5709 5708 5707 5705 5704 5702 5701 5700 5698 5697 5696 5695 5694 5693 5692 5690 5690 5689 5688 5687 5686 5686 5685 5686 5687 5687 5688 5688 5689 5689 5690 5691 5692 5693 5694
5714 5712 5711 5709 5706 5704 5702 5701 5699 5698 5696 5695 5693 5691 5690 5688 5687 5686 5685 5684 5683 5682 5681 5681 5680 5679 5678 5677 5676 5675 5675 5674 5675 5676 5677 5677 5678 5679 5680 5681 5682 5683 5684
5705 5703 5701 5699 5697 5694 5692 5690 5689 5687 5685 5684 5682 5680 5679 5678 5677 5675 5674 5673 5672 5671 5671 5670 5669 5668 5667 5667 5666 5665 5664 5664 5664 5665 5666 5666 5667 5668 5669 5671 5671 5673 5674
5695 5693 5691 5689 5686 5684 5682 5680 5678 5676 5675 5673 5671 5669 5668 5667 5666 5664 5663 5662 5661 5660 5659 5659 5658 5657 5657 5656 5655 5654 5653 5653 5654 5654 5655 5655 5657 5658 5659 5660 5661 5662 5664
5685 5683 5680 5678 5676 5674 5672 5670 5668 5666 5664 5662 5661 5659 5657 5656 5654 5653 5652 5651 5650 5649 5648 5647 5647 5646 5645 5644 5644 5643 5643 5643 5643 5644 5645 5646 5647 5648 5649 5650 5651 5652 5654